| time (UTC) | temp F | wind direction | speed MPH | gust MPH | rain 1hr in | rain 24hr in | rain mn in | humidity % | barometer mb |
| 20260507051510 | 45 | 104 | 1.0 | 4.0 | 0.00 | 0.00 | 0.00 | 41 | 1014.0 |
| 20260507042058 | 39 | 359 | 1.0 | 2.0 | 0.00 | 0.00 | 0.00 | 49 | 1015.2 |
| 20260507035432 | 36 | 352 | 2.0 | 4.0 | 0.00 | 0.00 | 0.00 | 53 | 1015.5 |
| 20260507034500 | 36 | 358 | 2.0 | 4.0 | 0.00 | 0.00 | 0.00 | 53 | 1015.5 |
| 20260507033605 | 35 | 352 | 2.0 | 4.0 | 0.00 | 0.00 | 0.00 | 54 | 1015.6 |
| 20260507032649 | 35 | 350 | 2.0 | 3.0 | 0.00 | 0.00 | 0.00 | 54 | 1015.6 |
| 20260507031738 | 35 | 354 | 2.0 | 3.0 | 0.00 | 0.00 | 0.00 | 54 | 1015.5 |
| 20260507030850 | 35 | 358 | 2.0 | 3.0 | 0.00 | 0.00 | 0.00 | 53 | 1015.5 |
| 20260507025940 | 34 | 351 | 2.0 | 3.0 | 0.00 | 0.00 | 0.00 | 54 | 1015.5 |
| 20260507021504 | 35 | 359 | 2.0 | 4.0 | 0.00 | 0.00 | 0.00 | 54 | 1015.5 |
| 20260507020600 | 34 | 352 | 2.0 | 4.0 | 0.00 | 0.00 | 0.00 | 57 | 1015.5 |
| 20260507015624 | 35 | 351 | 2.0 | 3.0 | 0.00 | 0.00 | 0.00 | 55 | 1015.4 |
| 20260507012934 | 36 | 359 | 1.0 | 3.0 | 0.00 | 0.00 | 0.00 | 52 | 1015.2 |
| 20260507012050 | 36 | 357 | 2.0 | 4.0 | 0.00 | 0.00 | 0.00 | 51 | 1015.2 |
| 20260507011215 | 36 | 356 | 2.0 | 4.0 | 0.00 | 0.00 | 0.00 | 52 | 1015.2 |
| 20260507010320 | 36 | 355 | 2.0 | 4.0 | 0.00 | 0.00 | 0.00 | 50 | 1015.1 |
| 20260507005440 | 36 | 355 | 1.0 | 4.0 | 0.00 | 0.00 | 0.00 | 51 | 1015.1 |
| 20260507003629 | 37 | 358 | 2.0 | 5.0 | 0.00 | 0.00 | 0.00 | 49 | 1015.0 |
| 20260507001844 | 37 | 359 | 2.0 | 5.0 | 0.00 | 0.00 | 0.00 | 49 | 1014.9 |
| 20260507000930 | 37 | 357 | 2.0 | 5.0 | 0.00 | 0.00 | 0.00 | 49 | 1014.8 |
| 20260506235205 | 38 | 356 | 3.0 | 6.0 | 0.00 | 0.00 | 0.00 | 50 | 1014.8 |
| 20260506234305 | 38 | 355 | 2.0 | 6.0 | 0.00 | 0.00 | 0.00 | 49 | 1014.7 |
| 20260506233420 | 38 | 358 | 2.0 | 5.0 | 0.00 | 0.00 | 0.00 | 49 | 1014.6 |
| 20260506232525 | 38 | 355 | 3.0 | 5.0 | 0.00 | 0.00 | 0.00 | 49 | 1014.5 |
| 20260506231609 | 39 | 357 | 3.0 | 6.0 | 0.00 | 0.00 | 0.00 | 49 | 1014.4 |
| 20260506230712 | 39 | 354 | 3.0 | 6.0 | 0.00 | 0.00 | 0.00 | 48 | 1014.5 |
| 20260506225835 | 39 | 355 | 3.0 | 6.0 | 0.00 | 0.00 | 0.00 | 48 | 1014.4 |
| 20260506224935 | 39 | 355 | 3.0 | 6.0 | 0.00 | 0.00 | 0.00 | 47 | 1014.4 |
| 20260506224035 | 40 | 354 | 3.0 | 5.0 | 0.00 | 0.00 | 0.00 | 48 | 1014.3 |
| 20260506223150 | 40 | 355 | 3.0 | 6.0 | 0.00 | 0.00 | 0.00 | 48 | 1014.3 |
| 20260506222310 | 40 | 356 | 3.0 | 5.0 | 0.00 | 0.00 | 0.00 | 47 | 1014.3 |
| 20260506221415 | 40 | 358 | 3.0 | 6.0 | 0.00 | 0.00 | 0.00 | 48 | 1014.3 |
| 20260506220527 | 40 | 353 | 3.0 | 6.0 | 0.00 | 0.00 | 0.00 | 51 | 1014.2 |
| 20260506215615 | 40 | 351 | 4.0 | 5.0 | 0.00 | 0.00 | 0.00 | 53 | 1014.1 |
| 20260506214715 | 40 | 356 | 3.0 | 4.0 | 0.00 | 0.00 | 0.00 | 52 | 1014.1 |
| 20260506213740 | 39 | 344 | 3.0 | 4.0 | 0.00 | 0.00 | 0.00 | 59 | 1014.1 |
| 20260506212832 | 39 | 344 | 2.0 | 4.0 | 0.00 | 0.00 | 0.00 | 59 | 1014.0 |
| 20260506211935 | 40 | 353 | 2.0 | 4.0 | 0.00 | 0.00 | 0.00 | 61 | 1014.0 |
| 20260506211105 | 40 | 348 | 2.0 | 4.0 | 0.00 | 0.00 | 0.00 | 63 | 1013.9 |
| 20260506210219 | 40 | 342 | 2.0 | 3.0 | 0.00 | 0.00 | 0.00 | 63 | 1013.8 |
| 20260506205345 | 41 | 353 | 1.0 | 2.0 | 0.00 | 0.00 | 0.00 | 62 | 1013.7 |
| 20260506204529 | 40 | 355 | 0.0 | 2.0 | 0.00 | 0.00 | 0.00 | 63 | 1013.7 |
| 20260506203605 | 40 | 289 | 0.0 | 1.0 | 0.00 | 0.00 | 0.00 | 62 | 1013.7 |
| 20260506202716 | 41 | 157 | 0.0 | 0.0 | 0.00 | 0.00 | 0.00 | 60 | 1013.5 |
| 20260506201800 | 42 | 240 | 0.0 | 1.0 | 0.00 | 0.00 | 0.00 | 58 | 1013.4 |
| 20260506200845 | 42 | 235 | 0.0 | 1.0 | 0.00 | 0.00 | 0.00 | 57 | 1013.3 |
| 20260506200015 | 42 | 250 | 0.0 | 1.0 | 0.00 | 0.00 | 0.00 | 56 | 1013.2 |
| 20260506195119 | 43 | 285 | 0.0 | 1.0 | 0.00 | 0.00 | 0.00 | 55 | 1013.0 |
| 20260506194220 | 44 | 214 | 0.0 | 1.0 | 0.00 | 0.00 | 0.00 | 53 | 1012.7 |
| 20260506193320 | 44 | 147 | 0.0 | 2.0 | 0.00 | 0.00 | 0.00 | 51 | 1012.6 |
| 20260506192400 | 45 | 267 | 1.0 | 2.0 | 0.00 | 0.00 | 0.00 | 49 | 1012.3 |
| 20260506191440 | 46 | 251 | 1.0 | 3.0 | 0.00 | 0.00 | 0.00 | 47 | 1012.2 |
| 20260506190550 | 46 | 250 | 2.0 | 3.0 | 0.00 | 0.00 | 0.00 | 46 | 1012.2 |
| 20260506185716 | 46 | 245 | 2.0 | 4.0 | 0.00 | 0.00 | 0.00 | 46 | 1012.1 |
| 20260506184755 | 47 | 230 | 3.0 | 5.0 | 0.00 | 0.00 | 0.00 | 45 | 1012.0 |
| 20260506183850 | 47 | 235 | 2.0 | 4.0 | 0.00 | 0.00 | 0.00 | 44 | 1011.8 |
| 20260506182944 | 48 | 237 | 2.0 | 3.0 | 0.00 | 0.00 | 0.00 | 44 | 1011.8 |
| 20260506182105 | 48 | 249 | 2.0 | 3.0 | 0.00 | 0.00 | 0.00 | 42 | 1011.7 |
| 20260506181205 | 49 | 238 | 2.0 | 4.0 | 0.00 | 0.00 | 0.00 | 43 | 1011.6 |
| 20260506180250 | 49 | 214 | 2.0 | 5.0 | 0.00 | 0.00 | 0.00 | 43 | 1011.6 |
| 20260506175350 | 49 | 196 | 2.0 | 4.0 | 0.00 | 0.00 | 0.00 | 43 | 1011.5 |
| 20260506174442 | 49 | 190 | 3.0 | 6.0 | 0.00 | 0.00 | 0.00 | 43 | 1011.4 |
| 20260506173535 | 49 | 197 | 3.0 | 7.0 | 0.00 | 0.00 | 0.00 | 42 | 1011.2 |
| 20260506172655 | 50 | 205 | 4.0 | 11.0 | 0.00 | 0.00 | 0.00 | 40 | 1011.1 |
| 20260506171805 | 50 | 197 | 4.0 | 9.0 | 0.00 | 0.00 | 0.00 | 40 | 1011.0 |
| 20260506170904 | 50 | 213 | 4.0 | 8.0 | 0.00 | 0.00 | 0.00 | 39 | 1010.8 |
| 20260506170025 | 50 | 216 | 5.0 | 10.0 | 0.00 | 0.00 | 0.00 | 38 | 1010.8 |
| 20260506165043 | 50 | 205 | 5.0 | 10.0 | 0.00 | 0.00 | 0.00 | 37 | 1010.8 |
| 20260506164116 | 50 | 215 | 4.0 | 9.0 | 0.00 | 0.00 | 0.00 | 39 | 1010.7 |
| 20260506163140 | 50 | 218 | 5.0 | 11.0 | 0.00 | 0.00 | 0.00 | 39 | 1010.8 |
| 20260506162233 | 50 | 215 | 6.0 | 12.0 | 0.00 | 0.00 | 0.00 | 38 | 1010.8 |
| 20260506161335 | 50 | 221 | 6.0 | 12.0 | 0.00 | 0.00 | 0.00 | 38 | 1010.7 |
| 20260506160520 | 50 | 221 | 5.0 | 10.0 | 0.00 | 0.00 | 0.00 | 39 | 1010.7 |
| 20260506155552 | 50 | 211 | 6.0 | 13.0 | 0.00 | 0.00 | 0.00 | 40 | 1010.7 |
| 20260506154750 | 50 | 215 | 7.0 | 13.0 | 0.00 | 0.00 | 0.00 | 39 | 1010.8 |
| 20260506153814 | 50 | 212 | 6.0 | 13.0 | 0.00 | 0.00 | 0.00 | 40 | 1010.7 |
| 20260506152850 | 50 | 196 | 6.0 | 13.0 | 0.00 | 0.00 | 0.00 | 40 | 1010.6 |
| 20260506151900 | 51 | 214 | 4.0 | 12.0 | 0.00 | 0.00 | 0.00 | 38 | 1010.3 |
| 20260506151005 | 51 | 220 | 6.0 | 15.0 | 0.00 | 0.00 | 0.00 | 36 | 1010.2 |
| 20260506150055 | 52 | 224 | 5.0 | 12.0 | 0.00 | 0.00 | 0.00 | 34 | 1010.2 |
| 20260506145215 | 51 | 240 | 6.0 | 14.0 | 0.00 | 0.00 | 0.00 | 33 | 1010.4 |
| 20260506144335 | 52 | 239 | 6.0 | 15.0 | 0.00 | 0.00 | 0.00 | 33 | 1010.3 |
| 20260506143500 | 52 | 250 | 6.0 | 15.0 | 0.00 | 0.00 | 0.00 | 32 | 1010.1 |
| 20260506142605 | 52 | 227 | 6.0 | 15.0 | 0.00 | 0.00 | 0.00 | 31 | 1010.1 |
| 20260506141654 | 53 | 230 | 4.0 | 10.0 | 0.00 | 0.00 | 0.00 | 32 | 1010.0 |
| 20260506140750 | 51 | 235 | 7.0 | 12.0 | 0.00 | 0.00 | 0.00 | 32 | 1010.1 |
| 20260506135820 | 53 | 253 | 5.0 | 14.0 | 0.00 | 0.00 | 0.00 | 30 | 1009.8 |
| 20260506134915 | 52 | 228 | 6.0 | 12.0 | 0.00 | 0.00 | 0.00 | 32 | 1010.0 |
| 20260506133948 | 52 | 195 | 5.0 | 13.0 | 0.00 | 0.00 | 0.00 | 37 | 1009.9 |
| 20260506133030 | 51 | 180 | 6.0 | 13.0 | 0.00 | 0.00 | 0.00 | 40 | 1010.1 |
| 20260506132140 | 51 | 186 | 5.0 | 14.0 | 0.00 | 0.00 | 0.00 | 41 | 1010.2 |
| 20260506131225 | 50 | 212 | 7.0 | 14.0 | 0.00 | 0.00 | 0.00 | 42 | 1010.3 |
| 20260506130357 | 52 | 240 | 5.0 | 11.0 | 0.00 | 0.00 | 0.00 | 36 | 1010.1 |
| 20260506125455 | 51 | 244 | 6.0 | 14.0 | 0.00 | 0.00 | 0.00 | 25 | 1010.3 |
| 20260506124535 | 51 | 272 | 5.0 | 11.0 | 0.00 | 0.00 | 0.00 | 25 | 1010.2 |
| 20260506123640 | 51 | 289 | 7.0 | 17.0 | 0.00 | 0.00 | 0.00 | 27 | 1010.1 |
| 20260506122740 | 51 | 330 | 6.0 | 13.0 | 0.00 | 0.00 | 0.00 | 27 | 1010.1 |
| 20260506121855 | 52 | 301 | 4.0 | 14.0 | 0.00 | 0.00 | 0.00 | 26 | 1009.9 |
| 20260506121004 | 51 | 320 | 4.0 | 11.0 | 0.00 | 0.00 | 0.00 | 25 | 1009.9 |
| 20260506120110 | 52 | 294 | 5.0 | 12.0 | 0.00 | 0.00 | 0.00 | 24 | 1009.7 |
| 20260506115145 | 53 | 292 | 7.0 | 17.0 | 0.00 | 0.00 | 0.00 | 24 | 1009.8 |
| 20260506114327 | 52 | 290 | 6.0 | 17.0 | 0.00 | 0.00 | 0.00 | 25 | 1009.7 |
| 20260506113405 | 52 | 259 | 5.0 | 13.0 | 0.00 | 0.00 | 0.00 | 25 | 1009.7 |
| 20260506112510 | 53 | 249 | 6.0 | 15.0 | 0.00 | 0.00 | 0.00 | 25 | 1009.7 |
| 20260506111610 | 51 | 229 | 6.0 | 12.0 | 0.00 | 0.00 | 0.00 | 26 | 1010.0 |
| 20260506110645 | 51 | 279 | 5.0 | 12.0 | 0.00 | 0.00 | 0.00 | 26 | 1010.1 |
| 20260506105743 | 50 | 282 | 7.0 | 17.0 | 0.00 | 0.00 | 0.00 | 26 | 1010.2 |
| 20260506104840 | 51 | 298 | 5.0 | 15.0 | 0.00 | 0.00 | 0.00 | 26 | 1009.8 |
| 20260506103944 | 51 | 283 | 4.0 | 14.0 | 0.00 | 0.00 | 0.00 | 27 | 1009.9 |
| 20260506103040 | 51 | 247 | 6.0 | 21.0 | 0.00 | 0.00 | 0.00 | 28 | 1010.1 |
| 20260506102200 | 50 | 230 | 4.0 | 11.0 | 0.00 | 0.00 | 0.00 | 28 | 1010.2 |
| 20260506101336 | 50 | 264 | 5.0 | 11.0 | 0.00 | 0.00 | 0.00 | 29 | 1010.4 |
| 20260506100415 | 50 | 268 | 5.0 | 14.0 | 0.00 | 0.00 | 0.00 | 29 | 1010.2 |
| 20260506095509 | 50 | 321 | 4.0 | 10.0 | 0.00 | 0.00 | 0.00 | 28 | 1010.3 |
| 20260506094610 | 48 | 312 | 7.0 | 15.0 | 0.00 | 0.00 | 0.00 | 29 | 1010.3 |
| 20260506093805 | 50 | 256 | 4.0 | 14.0 | 0.00 | 0.00 | 0.00 | 30 | 1009.9 |
| 20260506092835 | 51 | 252 | 4.0 | 14.0 | 0.00 | 0.00 | 0.00 | 30 | 1009.7 |
| 20260506091920 | 48 | 244 | 5.0 | 12.0 | 0.00 | 0.00 | 0.00 | 31 | 1010.5 |
| 20260506091028 | 48 | 292 | 5.0 | 14.0 | 0.00 | 0.00 | 0.00 | 32 | 1010.7 |
| 20260506090055 | 48 | 308 | 6.0 | 14.0 | 0.00 | 0.00 | 0.00 | 34 | 1010.5 |
| 20260506085155 | 48 | 282 | 5.0 | 14.0 | 0.00 | 0.00 | 0.00 | 34 | 1010.6 |
| 20260506084240 | 47 | 298 | 4.0 | 15.0 | 0.00 | 0.00 | 0.00 | 36 | 1010.4 |
| 20260506083420 | 47 | 290 | 4.0 | 10.0 | 0.00 | 0.00 | 0.00 | 37 | 1010.7 |
| 20260506082550 | 47 | 263 | 7.0 | 17.0 | 0.00 | 0.00 | 0.00 | 38 | 1010.6 |
| 20260506081632 | 48 | 305 | 5.0 | 14.0 | 0.00 | 0.00 | 0.00 | 37 | 1010.4 |
| 20260506080720 | 47 | 288 | 5.0 | 14.0 | 0.00 | 0.00 | 0.00 | 38 | 1010.7 |
| 20260506073112 | 46 | 271 | 6.0 | 13.0 | 0.00 | 0.00 | 0.00 | 42 | 1010.4 |
| 20260506072235 | 46 | 288 | 4.0 | 11.0 | 0.00 | 0.00 | 0.00 | 44 | 1010.3 |
| 20260506071322 | 46 | 272 | 5.0 | 16.0 | 0.00 | 0.00 | 0.00 | 45 | 1010.4 |
| 20260506070420 | 46 | 281 | 7.0 | 16.0 | 0.00 | 0.00 | 0.00 | 45 | 1010.4 |
| 20260506061850 | 44 | 278 | 4.0 | 10.0 | 0.00 | 0.00 | 0.00 | 49 | 1010.4 |
| 20260506060925 | 44 | 267 | 4.0 | 10.0 | 0.00 | 0.00 | 0.00 | 52 | 1010.5 |